TimeCDT,TemperatureF,Dew PointF,Humidity,Sea Level PressureIn,VisibilityMPH,Wind Direction,Wind SpeedMPH,Gust SpeedMPH,PrecipitationIn,Events,Conditions,WindDirDegrees,DateUTC
12:55 AM,62.6,57.2,82,29.88,10.0,Calm,Calm,-,N/A,,Clear,0,2012-10-01 05:55:00
1:55 AM,61.9,58.1,87,29.88,10.0,WNW,3.5,-,N/A,,Clear,290,2012-10-01 06:55:00
2:55 AM,60.6,58.1,91,29.88,10.0,NNW,3.5,-,N/A,,Clear,330,2012-10-01 07:55:00
3:55 AM,59.2,57.2,93,29.87,10.0,NNW,3.5,-,N/A,,Clear,340,2012-10-01 08:55:00
4:55 AM,61.0,58.5,91,29.87,10.0,WNW,5.8,-,N/A,,Clear,290,2012-10-01 09:55:00
5:55 AM,60.8,58.5,92,29.88,10.0,NNW,4.6,-,N/A,,Clear,330,2012-10-01 10:55:00
6:55 AM,58.8,58.3,98,29.88,10.0,NW,4.6,-,N/A,,Clear,320,2012-10-01 11:55:00
7:55 AM,57.7,57.4,99,29.91,10.0,NNW,6.9,-,N/A,,Clear,340,2012-10-01 12:55:00
8:55 AM,62.4,59.5,90,29.91,10.0,North,4.6,-,N/A,,Clear,350,2012-10-01 13:55:00
9:55 AM,67.8,59.0,73,29.93,10.0,North,8.1,-,N/A,,Clear,360,2012-10-01 14:55:00
10:55 AM,73.6,55.0,52,29.93,10.0,North,11.5,-,N/A,,Clear,350,2012-10-01 15:55:00
11:55 AM,76.1,50.5,41,29.93,10.0,North,12.7,-,N/A,,Clear,360,2012-10-01 16:55:00
12:55 PM,77.7,47.7,35,29.92,10.0,North,19.6,24.2,N/A,,Partly Cloudy,360,2012-10-01 17:55:00
1:55 PM,80.4,48.0,32,29.91,10.0,North,20.7,-,N/A,,Partly Cloudy,360,2012-10-01 18:55:00
2:55 PM,76.8,55.0,47,29.89,10.0,North,16.1,-,N/A,,Clear,350,2012-10-01 19:55:00
3:55 PM,79.2,53.8,41,29.88,10.0,North,19.6,24.2,N/A,,Clear,360,2012-10-01 20:55:00
4:55 PM,78.1,54.1,43,29.88,10.0,North,19.6,-,N/A,,Clear,360,2012-10-01 21:55:00
5:55 PM,78.1,52.7,41,29.88,10.0,North,23.0,27.6,N/A,,Clear,350,2012-10-01 22:55:00
6:25 PM,77.0,55.4,47,29.89,10.0,North,17.3,-,N/A,,Mostly Cloudy,360,2012-10-01 23:25:00
6:35 PM,77.0,53.6,44,29.90,10.0,North,19.6,28.8,N/A,,Scattered Clouds,360,2012-10-01 23:35:00
6:45 PM,75.2,53.6,47,29.91,10.0,North,17.3,25.3,N/A,,Mostly Cloudy,360,2012-10-01 23:45:00
6:55 PM,75.6,53.4,46,29.91,10.0,North,18.4,-,N/A,,Mostly Cloudy,10,2012-10-01 23:55:00
7:01 PM,75.2,53.6,47,29.91,10.0,North,17.3,-,N/A,Rain,Light Rain,360,2012-10-02 00:01:00
7:11 PM,73.4,55.4,53,29.91,10.0,North,21.9,26.5,N/A,,Partly Cloudy,10,2012-10-02 00:11:00
7:55 PM,68.5,54.9,62,29.93,10.0,North,9.2,-,0.00,,Clear,360,2012-10-02 00:55:00
8:55 PM,65.8,54.9,68,29.95,10.0,North,9.2,-,N/A,,Clear,360,2012-10-02 01:55:00
9:55 PM,66.7,51.6,58,29.96,10.0,North,11.5,-,N/A,,Clear,360,2012-10-02 02:55:00
10:55 PM,63.9,51.6,64,29.97,10.0,North,10.4,-,N/A,,Clear,350,2012-10-02 03:55:00
11:55 PM,63.3,51.1,64,29.97,10.0,North,10.4,-,N/A,,Clear,10,2012-10-02 04:55:00